Time,TemperatureF,DewpointF,PressureIn,WindDirection,WindDirectionDegrees,WindSpeedMPH,WindSpeedGustMPH,Humidity,HourlyPrecipIn,Conditions,Clouds,dailyrainin,SoftwareType,DateUTC
2013-07-24 00:02:00,78.3,76.5,29.96,SSW,207,2.0,4.0,94,0.00,,,0.00,meteohub,2013-07-24 05:02:00,
2013-07-24 00:07:00,78.3,76.5,29.96,SSW,207,1.0,4.0,94,0.00,,,0.00,meteohub,2013-07-24 05:07:00,
2013-07-24 00:12:00,78.1,76.3,29.96,SSW,207,3.0,5.0,94,0.00,,,0.00,meteohub,2013-07-24 05:12:00,
2013-07-24 00:17:00,78.1,76.3,29.95,SSW,207,0.0,5.0,94,0.00,,,0.00,meteohub,2013-07-24 05:17:00,
2013-07-24 00:22:00,78.1,76.3,29.94,SSW,207,0.0,5.0,94,0.00,,,0.00,meteohub,2013-07-24 05:22:00,
2013-07-24 00:27:00,78.1,76.5,29.94,SSW,207,2.0,5.0,95,0.00,,,0.00,meteohub,2013-07-24 05:27:00,
2013-07-24 00:32:00,77.9,76.3,29.94,SSW,207,1.0,4.0,95,0.00,,,0.00,meteohub,2013-07-24 05:32:00,
2013-07-24 00:37:00,77.7,76.1,29.94,SSW,207,2.0,4.0,95,0.00,,,0.00,meteohub,2013-07-24 05:37:00,
2013-07-24 00:43:00,77.7,76.1,29.93,SSW,207,1.0,4.0,95,0.00,,,0.00,meteohub,2013-07-24 05:43:00,
2013-07-24 00:48:00,77.7,76.1,29.93,SSW,207,1.0,4.0,95,0.00,,,0.00,meteohub,2013-07-24 05:48:00,
2013-07-24 00:53:00,77.5,75.9,29.93,SSW,207,0.0,4.0,95,0.00,,,0.00,meteohub,2013-07-24 05:53:00,
2013-07-24 00:58:00,77.5,76.3,29.93,SSW,207,3.0,4.0,96,0.00,,,0.00,meteohub,2013-07-24 05:58:00,
2013-07-24 01:03:00,77.5,76.3,29.93,SSW,207,2.0,4.0,96,0.00,,,0.00,meteohub,2013-07-24 06:03:00,
2013-07-24 01:08:00,77.5,76.3,29.92,SSW,207,1.0,6.0,96,0.00,,,0.00,meteohub,2013-07-24 06:08:00,
2013-07-24 01:13:00,77.5,76.3,29.92,SSW,210,5.0,6.0,96,0.00,,,0.00,meteohub,2013-07-24 06:13:00,
2013-07-24 01:18:00,77.5,76.3,29.91,SW,234,3.0,6.0,96,0.00,,,0.00,meteohub,2013-07-24 06:18:00,
2013-07-24 01:23:00,77.5,76.3,29.92,SW,227,0.0,6.0,96,0.00,,,0.00,meteohub,2013-07-24 06:23:00,
2013-07-24 01:28:00,77.5,76.3,29.91,South,188,2.0,7.0,96,0.00,,,0.00,meteohub,2013-07-24 06:28:00,
2013-07-24 01:33:00,77.5,76.3,29.91,WSW,239,1.0,7.0,96,0.00,,,0.00,meteohub,2013-07-24 06:33:00,
2013-07-24 01:38:00,77.5,76.3,29.91,SSW,195,3.0,7.0,96,0.00,,,0.00,meteohub,2013-07-24 06:38:00,
2013-07-24 01:43:00,77.5,76.3,29.91,SSW,204,1.0,5.0,96,0.00,,,0.00,meteohub,2013-07-24 06:43:00,
2013-07-24 01:48:00,77.5,76.3,29.91,SSW,207,0.0,5.0,96,0.00,,,0.00,meteohub,2013-07-24 06:48:00,
2013-07-24 01:53:00,77.5,76.3,29.91,SSW,207,4.0,8.0,96,0.00,,,0.00,meteohub,2013-07-24 06:53:00,
2013-07-24 01:58:00,77.5,76.3,29.91,SW,217,3.0,8.0,96,0.00,,,0.00,meteohub,2013-07-24 06:58:00,
2013-07-24 02:03:00,77.5,76.3,29.90,SW,219,3.0,8.0,96,0.00,,,0.00,meteohub,2013-07-24 07:03:00,
2013-07-24 02:08:00,77.5,76.3,29.90,SSW,207,2.0,7.0,96,0.00,,,0.00,meteohub,2013-07-24 07:08:00,
2013-07-24 02:13:00,77.5,76.3,29.90,SW,223,1.0,7.0,96,0.00,,,0.00,meteohub,2013-07-24 07:13:00,
2013-07-24 02:18:00,77.5,76.3,29.91,SW,219,4.0,7.0,96,0.00,,,0.00,meteohub,2013-07-24 07:18:00,
2013-07-24 02:23:00,77.5,76.3,29.91,WSW,240,2.0,6.0,96,0.00,,,0.00,meteohub,2013-07-24 07:23:00,
2013-07-24 02:28:00,77.5,76.3,29.91,South,175,2.0,6.0,96,0.00,,,0.00,meteohub,2013-07-24 07:28:00,
2013-07-24 02:33:00,77.5,76.3,29.91,SSW,207,3.0,6.0,96,0.00,,,0.00,meteohub,2013-07-24 07:33:00,
2013-07-24 02:38:00,77.5,76.3,29.91,SSW,200,3.0,8.0,96,0.00,,,0.00,meteohub,2013-07-24 07:38:00,
2013-07-24 02:43:00,77.5,76.3,29.91,SW,218,2.0,8.0,96,0.00,,,0.00,meteohub,2013-07-24 07:43:00,
2013-07-24 02:48:00,77.5,76.3,29.91,SSW,201,1.0,8.0,96,0.00,,,0.00,meteohub,2013-07-24 07:48:00,
2013-07-24 02:53:00,77.5,76.3,29.91,SSW,201,1.0,8.0,96,0.00,,,0.00,meteohub,2013-07-24 07:53:00,
2013-07-24 02:58:00,77.4,76.1,29.91,WNW,286,3.0,5.0,96,0.00,,,0.00,meteohub,2013-07-24 07:58:00,
2013-07-24 03:03:00,77.4,76.1,29.91,South,188,0.0,4.0,96,0.00,,,0.00,meteohub,2013-07-24 08:03:00,
2013-07-24 03:08:00,77.4,76.1,29.92,SW,217,2.0,5.0,96,0.00,,,0.00,meteohub,2013-07-24 08:08:00,
2013-07-24 03:13:00,77.4,76.1,29.92,SW,226,1.0,5.0,96,0.00,,,0.00,meteohub,2013-07-24 08:13:00,
2013-07-24 03:18:00,77.4,76.1,29.92,WSW,240,2.0,6.0,96,0.00,,,0.00,meteohub,2013-07-24 08:18:00,
2013-07-24 03:23:00,77.4,76.5,29.92,West,259,0.0,6.0,97,0.00,,,0.00,meteohub,2013-07-24 08:23:00,
2013-07-24 03:28:00,77.4,76.5,29.92,SW,221,3.0,4.0,97,0.00,,,0.00,meteohub,2013-07-24 08:28:00,
2013-07-24 03:33:00,77.4,76.5,29.92,SW,223,1.0,4.0,97,0.00,,,0.00,meteohub,2013-07-24 08:33:00,
2013-07-24 03:38:00,77.4,76.1,29.92,SSE,153,0.0,5.0,96,0.00,,,0.00,meteohub,2013-07-24 08:38:00,
2013-07-24 03:43:00,77.5,76.3,29.92,South,181,2.0,6.0,96,0.00,,,0.00,meteohub,2013-07-24 08:43:00,
2013-07-24 03:48:00,77.5,76.3,29.91,SW,218,3.0,6.0,96,0.00,,,0.00,meteohub,2013-07-24 08:48:00,
2013-07-24 03:53:00,77.5,76.3,29.91,WSW,251,0.0,6.0,96,0.00,,,0.00,meteohub,2013-07-24 08:53:00,
2013-07-24 03:58:00,77.5,76.3,29.91,SW,218,2.0,7.0,96,0.00,,,0.00,meteohub,2013-07-24 08:58:00,
2013-07-24 04:03:00,77.5,76.3,29.92,SW,227,2.0,7.0,96,0.00,,,0.00,meteohub,2013-07-24 09:03:00,
2013-07-24 04:08:00,77.5,76.3,29.92,SW,217,3.0,6.0,96,0.00,,,0.00,meteohub,2013-07-24 09:08:00,
2013-07-24 04:13:00,77.5,76.3,29.92,SW,217,0.0,6.0,96,0.00,,,0.00,meteohub,2013-07-24 09:13:00,
2013-07-24 04:18:00,77.5,76.3,29.92,SW,217,0.0,5.0,96,0.00,,,0.00,meteohub,2013-07-24 09:18:00,
2013-07-24 04:24:00,77.5,76.3,29.92,WNW,298,5.0,5.0,96,0.00,,,0.00,meteohub,2013-07-24 09:24:00,
2013-07-24 04:29:00,77.5,76.3,29.93,West,265,0.0,6.0,96,0.00,,,0.00,meteohub,2013-07-24 09:29:00,
2013-07-24 04:34:00,77.5,76.3,29.93,SSW,211,2.0,6.0,96,0.00,,,0.00,meteohub,2013-07-24 09:34:00,
2013-07-24 04:39:00,77.5,76.3,29.93,SSW,203,2.0,6.0,96,0.00,,,0.00,meteohub,2013-07-24 09:39:00,
2013-07-24 04:44:00,77.5,76.3,29.93,SSW,203,2.0,5.0,96,0.00,,,0.00,meteohub,2013-07-24 09:44:00,
2013-07-24 04:49:00,77.5,76.3,29.94,SSW,203,0.0,5.0,96,0.00,,,0.00,meteohub,2013-07-24 09:49:00,
2013-07-24 04:54:00,77.5,76.3,29.94,SSW,203,2.0,4.0,96,0.00,,,0.00,meteohub,2013-07-24 09:54:00,
2013-07-24 04:59:00,77.5,76.3,29.94,SSW,203,2.0,4.0,96,0.00,,,0.00,meteohub,2013-07-24 09:59:00,
2013-07-24 05:04:00,77.5,76.3,29.94,SSW,203,1.0,4.0,96,0.00,,,0.00,meteohub,2013-07-24 10:04:00,
2013-07-24 05:09:00,77.5,76.3,29.94,SSW,203,2.0,4.0,96,0.00,,,0.00,meteohub,2013-07-24 10:09:00,
2013-07-24 05:14:00,77.5,76.3,29.94,SSW,203,3.0,4.0,96,0.00,,,0.00,meteohub,2013-07-24 10:14:00,
2013-07-24 05:19:00,77.5,76.3,29.94,SSW,203,1.0,4.0,96,0.00,,,0.00,meteohub,2013-07-24 10:19:00,
2013-07-24 05:24:00,77.5,76.3,29.93,SW,221,3.0,4.0,96,0.00,,,0.00,meteohub,2013-07-24 10:24:00,
2013-07-24 05:29:00,77.4,76.1,29.94,SSW,205,2.0,5.0,96,0.00,,,0.00,meteohub,2013-07-24 10:29:00,
2013-07-24 05:34:00,77.4,76.1,29.94,SSW,205,3.0,6.0,96,0.00,,,0.00,meteohub,2013-07-24 10:34:00,
2013-07-24 05:39:00,77.4,76.1,29.94,SSW,206,2.0,6.0,96,0.00,,,0.00,meteohub,2013-07-24 10:39:00,
2013-07-24 05:44:00,77.4,76.1,29.94,SSW,206,1.0,7.0,96,0.00,,,0.00,meteohub,2013-07-24 10:44:00,
2013-07-24 05:49:00,77.4,76.1,29.94,SSW,206,1.0,7.0,96,0.00,,,0.00,meteohub,2013-07-24 10:49:00,
2013-07-24 05:54:00,77.4,76.1,29.94,SSW,206,2.0,7.0,96,0.00,,,0.00,meteohub,2013-07-24 10:54:00,
2013-07-24 05:59:00,77.4,76.1,29.94,SW,227,4.0,5.0,96,0.00,,,0.00,meteohub,2013-07-24 10:59:00,
2013-07-24 06:04:00,77.4,76.1,29.93,SW,229,1.0,5.0,96,0.00,,,0.00,meteohub,2013-07-24 11:04:00,
2013-07-24 06:09:00,77.4,76.1,29.93,SSW,202,5.0,5.0,96,0.00,,,0.00,meteohub,2013-07-24 11:09:00,
2013-07-24 06:14:00,77.4,76.1,29.93,SW,214,1.0,5.0,96,0.00,,,0.00,meteohub,2013-07-24 11:14:00,
2013-07-24 06:19:00,77.4,76.1,29.93,SW,217,2.0,7.0,96,0.00,,,0.00,meteohub,2013-07-24 11:19:00,
2013-07-24 06:24:00,77.4,76.1,29.94,SW,217,2.0,7.0,96,0.00,,,0.00,meteohub,2013-07-24 11:24:00,
2013-07-24 06:29:00,77.4,76.1,29.94,SW,217,0.0,7.0,96,0.00,,,0.00,meteohub,2013-07-24 11:29:00,
2013-07-24 06:34:00,77.2,75.9,29.94,SW,217,0.0,4.0,96,0.00,,,0.00,meteohub,2013-07-24 11:34:00,
2013-07-24 06:39:00,77.4,76.1,29.94,SW,217,0.0,3.0,96,0.00,,,0.00,meteohub,2013-07-24 11:39:00,
2013-07-24 06:44:00,77.4,76.1,29.95,WNW,284,4.0,4.0,96,0.00,,,0.00,meteohub,2013-07-24 11:44:00,
2013-07-24 06:49:00,77.4,76.1,29.95,West,273,1.0,4.0,96,0.00,,,0.00,meteohub,2013-07-24 11:49:00,
2013-07-24 06:54:00,77.4,76.1,29.96,West,273,1.0,5.0,96,0.00,,,0.00,meteohub,2013-07-24 11:54:00,
2013-07-24 06:59:00,77.4,76.1,29.96,West,273,1.0,5.0,96,0.00,,,0.00,meteohub,2013-07-24 11:59:00,
2013-07-24 07:05:00,77.4,76.1,29.96,West,273,2.0,4.0,96,0.00,,,0.00,meteohub,2013-07-24 12:05:00,
2013-07-24 07:10:00,77.4,76.1,29.96,West,259,2.0,5.0,96,0.00,,,0.00,meteohub,2013-07-24 12:10:00,
2013-07-24 07:15:00,77.5,76.3,29.96,West,260,3.0,5.0,96,0.00,,,0.00,meteohub,2013-07-24 12:15:00,
2013-07-24 07:20:00,77.5,76.3,29.96,West,260,1.0,5.0,96,0.00,,,0.00,meteohub,2013-07-24 12:20:00,
2013-07-24 07:25:00,77.5,76.3,29.96,West,260,2.0,4.0,96,0.00,,,0.00,meteohub,2013-07-24 12:25:00,
2013-07-24 07:30:00,77.5,76.3,29.96,West,260,0.0,4.0,96,0.00,,,0.00,meteohub,2013-07-24 12:30:00,
2013-07-24 07:35:00,77.7,76.5,29.97,West,260,3.0,5.0,96,0.00,,,0.00,meteohub,2013-07-24 12:35:00,
2013-07-24 07:40:00,77.9,76.6,29.97,West,261,1.0,5.0,96,0.00,,,0.00,meteohub,2013-07-24 12:40:00,
2013-07-24 07:45:00,78.1,76.8,29.97,West,261,1.0,4.0,96,0.00,,,0.00,meteohub,2013-07-24 12:45:00,
2013-07-24 07:51:00,78.3,77.0,29.97,West,261,3.0,4.0,96,0.00,,,0.00,meteohub,2013-07-24 12:51:00,
2013-07-24 07:56:00,78.4,76.8,29.98,West,261,0.0,4.0,95,0.00,,,0.00,meteohub,2013-07-24 12:56:00,
2013-07-24 08:01:00,78.4,76.8,29.98,SSW,213,2.0,8.0,95,0.00,,,0.00,meteohub,2013-07-24 13:01:00,
2013-07-24 08:06:00,78.6,77.0,29.97,WSW,246,1.0,8.0,95,0.00,,,0.00,meteohub,2013-07-24 13:06:00,
2013-07-24 08:11:00,79.0,77.2,29.97,SW,234,0.0,8.0,94,0.00,,,0.00,meteohub,2013-07-24 13:11:00,
2013-07-24 08:16:00,79.3,77.5,29.97,SSW,206,5.0,6.0,94,0.00,,,0.00,meteohub,2013-07-24 13:16:00,
2013-07-24 08:21:00,79.5,77.4,29.97,SSW,196,5.0,6.0,93,0.00,,,0.00,meteohub,2013-07-24 13:21:00,
2013-07-24 08:26:00,79.9,77.7,29.97,SSW,205,3.0,7.0,93,0.00,,,0.00,meteohub,2013-07-24 13:26:00,
2013-07-24 08:31:00,80.4,77.9,29.97,West,263,4.0,7.0,92,0.00,,,0.00,meteohub,2013-07-24 13:31:00,
2013-07-24 08:36:00,80.8,77.9,29.97,South,189,4.0,7.0,91,0.00,,,0.00,meteohub,2013-07-24 13:36:00,
2013-07-24 08:41:00,81.1,78.3,29.96,West,267,4.0,7.0,91,0.00,,,0.00,meteohub,2013-07-24 13:41:00,
2013-07-24 08:47:00,81.5,77.9,29.96,West,281,9.0,9.0,89,0.00,,,0.00,meteohub,2013-07-24 13:47:00,
2013-07-24 08:52:00,81.5,77.9,29.96,SW,221,5.0,9.0,89,0.00,,,0.00,meteohub,2013-07-24 13:52:00,
2013-07-24 08:57:00,81.7,78.4,29.96,WSW,241,1.0,9.0,90,0.00,,,0.00,meteohub,2013-07-24 13:57:00,
2013-07-24 09:02:00,81.7,77.7,29.96,SW,229,4.0,9.0,88,0.00,,,0.00,meteohub,2013-07-24 14:02:00,
2013-07-24 09:07:00,81.9,77.9,29.96,WSW,254,3.0,8.0,88,0.00,,,0.00,meteohub,2013-07-24 14:07:00,
2013-07-24 09:12:00,82.2,78.3,29.96,WNW,291,6.0,10.0,88,0.00,,,0.00,meteohub,2013-07-24 14:12:00,
2013-07-24 09:17:00,82.2,77.5,29.96,West,276,6.0,10.0,86,0.00,,,0.00,meteohub,2013-07-24 14:17:00,
2013-07-24 09:22:00,82.2,77.9,29.96,WSW,250,3.0,10.0,87,0.00,,,0.00,meteohub,2013-07-24 14:22:00,
2013-07-24 09:27:00,82.6,78.3,29.96,SW,229,1.0,9.0,87,0.00,,,0.00,meteohub,2013-07-24 14:27:00,
2013-07-24 09:32:00,82.9,78.6,29.96,WSW,251,4.0,9.0,87,0.00,,,0.00,meteohub,2013-07-24 14:32:00,
2013-07-24 09:37:00,83.1,78.4,29.96,SW,223,3.0,9.0,86,0.00,,,0.00,meteohub,2013-07-24 14:37:00,
2013-07-24 09:42:00,83.5,78.4,29.96,West,261,4.0,10.0,85,0.00,,,0.00,meteohub,2013-07-24 14:42:00,
2013-07-24 09:47:00,83.7,78.3,29.96,WNW,288,4.0,12.0,84,0.00,,,0.00,meteohub,2013-07-24 14:47:00,
2013-07-24 09:52:00,84.0,78.6,29.97,WSW,238,3.0,12.0,84,0.00,,,0.00,meteohub,2013-07-24 14:52:00,
2013-07-24 09:57:00,84.4,78.6,29.97,West,271,4.0,12.0,83,0.00,,,0.00,meteohub,2013-07-24 14:57:00,
2013-07-24 10:02:00,84.4,78.3,29.97,West,271,3.0,11.0,82,0.00,,,0.00,meteohub,2013-07-24 15:02:00,
2013-07-24 10:07:00,84.6,78.1,29.97,West,264,6.0,12.0,81,0.00,,,0.00,meteohub,2013-07-24 15:07:00,
2013-07-24 10:12:00,84.4,78.3,29.97,WSW,246,3.0,12.0,82,0.00,,,0.00,meteohub,2013-07-24 15:12:00,
2013-07-24 10:17:00,84.4,77.9,29.98,SW,216,4.0,10.0,81,0.00,,,0.00,meteohub,2013-07-24 15:17:00,
2013-07-24 10:22:00,84.7,78.3,29.97,SSW,208,4.0,10.0,81,0.00,,,0.00,meteohub,2013-07-24 15:22:00,
2013-07-24 10:27:00,84.9,77.7,29.98,SSW,202,4.0,14.0,79,0.00,,,0.00,meteohub,2013-07-24 15:27:00,
2013-07-24 10:32:00,85.6,77.9,29.98,SSW,206,3.0,14.0,78,0.00,,,0.00,meteohub,2013-07-24 15:32:00,
2013-07-24 10:37:00,85.8,78.1,29.98,West,262,2.0,14.0,78,0.00,,,0.00,meteohub,2013-07-24 15:37:00,
2013-07-24 10:42:00,86.0,77.9,29.98,West,269,5.0,10.0,77,0.00,,,0.00,meteohub,2013-07-24 15:42:00,
2013-07-24 10:47:00,85.6,76.8,29.99,West,261,9.0,10.0,75,0.00,,,0.00,meteohub,2013-07-24 15:47:00,
2013-07-24 10:52:00,85.6,77.2,29.98,SSW,209,4.0,13.0,76,0.00,,,0.00,meteohub,2013-07-24 15:52:00,
2013-07-24 10:57:00,86.0,77.2,29.98,SW,220,6.0,15.0,75,0.00,,,0.00,meteohub,2013-07-24 15:57:00,
2013-07-24 11:02:00,86.5,77.7,29.98,West,264,1.0,15.0,75,0.00,,,0.00,meteohub,2013-07-24 16:02:00,
2013-07-24 11:07:00,86.5,78.1,29.98,SSW,199,7.0,15.0,76,0.00,,,0.00,meteohub,2013-07-24 16:07:00,
2013-07-24 11:12:00,86.5,77.2,29.98,SW,225,4.0,14.0,74,0.00,,,0.00,meteohub,2013-07-24 16:12:00,
2013-07-24 11:17:00,86.7,77.4,29.98,WSW,237,3.0,14.0,74,0.00,,,0.00,meteohub,2013-07-24 16:17:00,
2013-07-24 11:22:00,86.7,77.4,29.98,West,267,6.0,14.0,74,0.00,,,0.00,meteohub,2013-07-24 16:22:00,
2013-07-24 11:27:00,86.7,77.4,29.98,West,276,4.0,14.0,74,0.00,,,0.00,meteohub,2013-07-24 16:27:00,
2013-07-24 11:32:00,87.1,77.4,29.98,SSW,203,4.0,12.0,73,0.00,,,0.00,meteohub,2013-07-24 16:32:00,
2013-07-24 11:37:00,87.4,77.4,29.98,West,263,6.0,12.0,72,0.00,,,0.00,meteohub,2013-07-24 16:37:00,
2013-07-24 11:42:00,87.4,77.4,29.98,WSW,240,4.0,13.0,72,0.00,,,0.00,meteohub,2013-07-24 16:42:00,
2013-07-24 11:47:00,87.6,77.5,29.98,West,269,4.0,13.0,72,0.00,,,0.00,meteohub,2013-07-24 16:47:00,
2013-07-24 11:52:00,87.6,77.0,29.98,West,263,9.0,13.0,71,0.00,,,0.00,meteohub,2013-07-24 16:52:00,
2013-07-24 11:57:00,87.8,77.7,29.98,West,277,6.0,12.0,72,0.00,,,0.00,meteohub,2013-07-24 16:57:00,
2013-07-24 12:02:00,87.6,76.6,29.98,SSW,212,3.0,13.0,70,0.00,,,0.00,meteohub,2013-07-24 17:02:00,
2013-07-24 12:08:00,88.0,76.5,29.98,SSW,203,11.0,13.0,69,0.00,,,0.00,meteohub,2013-07-24 17:08:00,
2013-07-24 12:13:00,87.6,77.0,29.98,West,276,5.0,10.0,71,0.00,,,0.00,meteohub,2013-07-24 17:13:00,
2013-07-24 12:18:00,87.8,77.7,29.97,SW,225,4.0,12.0,72,0.00,,,0.00,meteohub,2013-07-24 17:18:00,
2013-07-24 12:23:00,88.5,77.0,29.97,SSW,210,4.0,12.0,69,0.00,,,0.00,meteohub,2013-07-24 17:23:00,
2013-07-24 12:28:00,88.7,77.7,29.97,WSW,254,2.0,10.0,70,0.00,,,0.00,meteohub,2013-07-24 17:28:00,
2013-07-24 12:33:00,88.9,77.4,29.97,SW,229,6.0,10.0,69,0.00,,,0.00,meteohub,2013-07-24 17:33:00,
2013-07-24 12:38:00,88.9,77.4,29.96,West,276,5.0,11.0,69,0.00,,,0.00,meteohub,2013-07-24 17:38:00,
2013-07-24 12:43:00,88.9,77.9,29.96,West,274,2.0,11.0,70,0.00,,,0.00,meteohub,2013-07-24 17:43:00,
2013-07-24 12:48:00,89.4,78.3,29.96,NW,308,6.0,11.0,70,0.00,,,0.00,meteohub,2013-07-24 17:48:00,
2013-07-24 12:53:00,90.1,78.1,29.95,SW,223,9.0,9.0,68,0.00,,,0.00,meteohub,2013-07-24 17:53:00,
2013-07-24 12:58:00,89.6,77.2,29.95,WNW,284,2.0,9.0,67,0.00,,,0.00,meteohub,2013-07-24 17:58:00,
2013-07-24 13:03:00,89.2,78.1,29.95,SSW,213,3.0,13.0,70,0.00,,,0.00,meteohub,2013-07-24 18:03:00,
2013-07-24 13:08:00,89.4,76.6,29.95,SW,223,5.0,13.0,66,0.00,,,0.00,meteohub,2013-07-24 18:08:00,
2013-07-24 13:13:00,89.4,77.5,29.95,SW,222,1.0,11.0,68,0.00,,,0.00,meteohub,2013-07-24 18:13:00,
2013-07-24 13:18:00,89.8,77.4,29.94,SW,219,6.0,10.0,67,0.00,,,0.00,meteohub,2013-07-24 18:18:00,
2013-07-24 13:23:00,90.0,77.5,29.94,SW,221,5.0,11.0,67,0.00,,,0.00,meteohub,2013-07-24 18:23:00,
2013-07-24 13:28:00,90.1,76.8,29.94,WSW,238,6.0,11.0,65,0.00,,,0.00,meteohub,2013-07-24 18:28:00,
2013-07-24 13:33:00,90.5,77.2,29.94,WSW,238,3.0,11.0,65,0.00,,,0.00,meteohub,2013-07-24 18:33:00,
2013-07-24 13:38:00,90.7,76.3,29.94,SSE,167,2.0,11.0,63,0.00,,,0.00,meteohub,2013-07-24 18:38:00,
2013-07-24 13:43:00,90.7,77.7,29.94,SW,215,2.0,10.0,66,0.00,,,0.00,meteohub,2013-07-24 18:43:00,
2013-07-24 13:48:00,90.5,78.1,29.93,SW,217,7.0,10.0,67,0.00,,,0.00,meteohub,2013-07-24 18:48:00,
2013-07-24 13:53:00,90.3,77.0,29.93,SSW,200,3.0,9.0,65,0.00,,,0.00,meteohub,2013-07-24 18:53:00,
2013-07-24 13:58:00,90.7,78.3,29.93,SW,236,2.0,9.0,67,0.00,,,0.00,meteohub,2013-07-24 18:58:00,
2013-07-24 14:03:00,90.7,77.4,29.92,SSW,213,6.0,9.0,65,0.00,,,0.00,meteohub,2013-07-24 19:03:00,
2013-07-24 14:08:00,90.3,77.4,29.92,South,190,4.0,9.0,66,0.00,,,0.00,meteohub,2013-07-24 19:08:00,
2013-07-24 14:13:00,90.3,77.4,29.92,SSE,167,2.0,9.0,66,0.00,,,0.00,meteohub,2013-07-24 19:13:00,
2013-07-24 14:18:00,90.9,78.4,29.92,West,267,2.0,12.0,67,0.00,,,0.00,meteohub,2013-07-24 19:18:00,
2013-07-24 14:23:00,91.2,77.4,29.92,West,269,3.0,12.0,64,0.00,,,0.00,meteohub,2013-07-24 19:23:00,
2013-07-24 14:28:00,91.4,77.9,29.92,SW,231,4.0,12.0,65,0.00,,,0.00,meteohub,2013-07-24 19:28:00,
2013-07-24 14:33:00,91.6,77.7,29.91,SW,226,2.0,10.0,64,0.00,,,0.00,meteohub,2013-07-24 19:33:00,
2013-07-24 14:38:00,91.9,78.1,29.91,SW,216,8.0,10.0,64,0.00,,,0.00,meteohub,2013-07-24 19:38:00,
2013-07-24 14:43:00,91.9,79.0,29.91,South,187,11.0,11.0,66,0.00,,,0.00,meteohub,2013-07-24 19:43:00,
2013-07-24 14:48:00,91.6,77.2,29.91,WNW,284,8.0,11.0,63,0.00,,,0.00,meteohub,2013-07-24 19:48:00,
2013-07-24 14:53:00,91.6,77.2,29.91,South,187,4.0,12.0,63,0.00,,,0.00,meteohub,2013-07-24 19:53:00,
2013-07-24 14:58:00,91.8,77.4,29.91,WSW,256,4.0,12.0,63,0.00,,,0.00,meteohub,2013-07-24 19:58:00,
2013-07-24 15:03:00,91.6,77.2,29.91,West,263,5.0,12.0,63,0.00,,,0.00,meteohub,2013-07-24 20:03:00,
2013-07-24 15:08:00,90.9,77.0,29.91,WNW,288,9.0,12.0,64,0.00,,,0.00,meteohub,2013-07-24 20:08:00,
2013-07-24 15:13:00,90.5,76.6,29.90,West,265,3.0,12.0,64,0.00,,,0.00,meteohub,2013-07-24 20:13:00,
2013-07-24 15:18:00,90.7,76.8,29.90,West,277,4.0,14.0,64,0.00,,,0.00,meteohub,2013-07-24 20:18:00,
2013-07-24 15:23:00,90.5,76.6,29.90,SW,236,1.0,14.0,64,0.00,,,0.00,meteohub,2013-07-24 20:23:00,
2013-07-24 15:28:00,90.1,76.8,29.90,West,267,6.0,10.0,65,0.00,,,0.00,meteohub,2013-07-24 20:28:00,
2013-07-24 15:33:00,89.8,76.8,29.89,West,269,6.0,10.0,66,0.00,,,0.00,meteohub,2013-07-24 20:33:00,
2013-07-24 15:38:00,89.6,76.6,29.89,WSW,256,2.0,9.0,66,0.00,,,0.00,meteohub,2013-07-24 20:38:00,
2013-07-24 15:43:00,90.0,76.1,29.89,SW,221,4.0,9.0,64,0.00,,,0.00,meteohub,2013-07-24 20:43:00,
2013-07-24 15:48:00,90.5,76.6,29.89,WSW,237,2.0,9.0,64,0.00,,,0.00,meteohub,2013-07-24 20:48:00,
2013-07-24 15:53:00,90.9,76.5,29.89,WSW,253,4.0,8.0,63,0.00,,,0.00,meteohub,2013-07-24 20:53:00,
2013-07-24 15:58:00,90.7,75.9,29.89,WSW,246,5.0,10.0,62,0.00,,,0.00,meteohub,2013-07-24 20:58:00,
2013-07-24 16:03:00,90.3,77.0,29.89,SW,223,3.0,11.0,65,0.00,,,0.00,meteohub,2013-07-24 21:03:00,
2013-07-24 16:08:00,90.3,76.5,29.88,West,279,3.0,11.0,64,0.00,,,0.00,meteohub,2013-07-24 21:08:00,
2013-07-24 16:13:00,90.5,77.2,29.88,WNW,288,5.0,11.0,65,0.00,,,0.00,meteohub,2013-07-24 21:13:00,
2013-07-24 16:18:00,90.9,77.5,29.88,WSW,249,4.0,9.0,65,0.00,,,0.00,meteohub,2013-07-24 21:18:00,
2013-07-24 16:23:00,90.9,77.0,29.88,SW,217,4.0,9.0,64,0.00,,,0.00,meteohub,2013-07-24 21:23:00,
2013-07-24 16:28:00,90.9,77.5,29.88,WSW,246,1.0,7.0,65,0.00,,,0.00,meteohub,2013-07-24 21:28:00,
2013-07-24 16:33:00,91.0,78.6,29.88,WSW,254,2.0,7.0,67,0.00,,,0.00,meteohub,2013-07-24 21:33:00,
2013-07-24 16:38:00,91.0,78.1,29.88,WSW,252,6.0,7.0,66,0.00,,,0.00,meteohub,2013-07-24 21:38:00,
2013-07-24 16:43:00,90.9,77.9,29.88,WSW,257,2.0,8.0,66,0.00,,,0.00,meteohub,2013-07-24 21:43:00,
2013-07-24 16:48:00,91.2,77.4,29.88,West,278,7.0,8.0,64,0.00,,,0.00,meteohub,2013-07-24 21:48:00,
2013-07-24 16:53:00,90.7,77.7,29.88,SW,219,0.0,8.0,66,0.00,,,0.00,meteohub,2013-07-24 21:53:00,
2013-07-24 16:58:00,90.9,77.9,29.88,WSW,247,4.0,9.0,66,0.00,,,0.00,meteohub,2013-07-24 21:58:00,
2013-07-24 17:03:00,91.0,79.0,29.87,SSW,207,4.0,9.0,68,0.00,,,0.00,meteohub,2013-07-24 22:03:00,
2013-07-24 17:08:00,91.6,78.1,29.87,SW,232,4.0,6.0,65,0.00,,,0.00,meteohub,2013-07-24 22:08:00,
2013-07-24 17:13:00,91.6,78.1,29.87,SSW,211,4.0,7.0,65,0.00,,,0.00,meteohub,2013-07-24 22:13:00,
2013-07-24 17:18:00,91.8,78.3,29.87,SW,225,5.0,7.0,65,0.00,,,0.00,meteohub,2013-07-24 22:18:00,
2013-07-24 17:23:00,91.4,77.5,29.87,SSW,210,0.0,7.0,64,0.00,,,0.00,meteohub,2013-07-24 22:23:00,
2013-07-24 17:29:00,91.0,77.2,29.88,SW,222,1.0,7.0,64,0.00,,,0.00,meteohub,2013-07-24 22:29:00,
2013-07-24 17:34:00,91.0,77.2,29.87,WSW,242,1.0,6.0,64,0.00,,,0.00,meteohub,2013-07-24 22:34:00,
2013-07-24 17:39:00,91.0,77.5,29.87,WSW,255,2.0,6.0,65,0.00,,,0.00,meteohub,2013-07-24 22:39:00,
2013-07-24 17:44:00,91.4,77.5,29.87,WSW,242,4.0,7.0,64,0.00,,,0.00,meteohub,2013-07-24 22:44:00,
2013-07-24 17:49:00,90.9,77.5,29.87,WNW,294,6.0,7.0,65,0.00,,,0.00,meteohub,2013-07-24 22:49:00,
2013-07-24 17:54:00,90.3,77.4,29.88,West,269,0.0,10.0,66,0.00,,,0.00,meteohub,2013-07-24 22:54:00,
2013-07-24 17:59:00,90.5,77.5,29.87,SW,225,2.0,10.0,66,0.00,,,0.00,meteohub,2013-07-24 22:59:00,
2013-07-24 18:04:00,90.3,77.0,29.87,SSW,213,1.0,10.0,65,0.00,,,0.00,meteohub,2013-07-24 23:04:00,
2013-07-24 18:09:00,90.1,76.8,29.88,SW,221,2.0,7.0,65,0.00,,,0.00,meteohub,2013-07-24 23:09:00,
2013-07-24 18:14:00,90.5,77.5,29.87,WNW,286,4.0,7.0,66,0.00,,,0.00,meteohub,2013-07-24 23:14:00,
2013-07-24 18:19:00,90.7,76.8,29.88,WNW,289,4.0,7.0,64,0.00,,,0.00,meteohub,2013-07-24 23:19:00,
2013-07-24 18:24:00,90.9,77.0,29.88,West,265,3.0,7.0,64,0.00,,,0.00,meteohub,2013-07-24 23:24:00,
2013-07-24 18:29:00,90.5,76.6,29.88,WSW,257,5.0,7.0,64,0.00,,,0.00,meteohub,2013-07-24 23:29:00,
2013-07-24 18:34:00,90.3,77.0,29.88,WSW,256,3.0,9.0,65,0.00,,,0.00,meteohub,2013-07-24 23:34:00,
2013-07-24 18:39:00,90.3,77.0,29.87,WSW,240,3.0,9.0,65,0.00,,,0.00,meteohub,2013-07-24 23:39:00,
2013-07-24 18:44:00,90.1,76.3,29.87,WSW,254,2.0,9.0,64,0.00,,,0.00,meteohub,2013-07-24 23:44:00,
2013-07-24 18:49:00,90.1,76.3,29.87,WSW,253,1.0,6.0,64,0.00,,,0.00,meteohub,2013-07-24 23:49:00,
2013-07-24 18:54:00,90.1,76.8,29.87,WSW,249,2.0,7.0,65,0.00,,,0.00,meteohub,2013-07-24 23:54:00,
2013-07-24 18:59:00,90.0,77.0,29.87,West,267,2.0,7.0,66,0.00,,,0.00,meteohub,2013-07-24 23:59:00,
2013-07-24 19:04:00,89.2,76.8,29.88,West,268,1.0,7.0,67,0.00,,,0.00,meteohub,2013-07-25 00:04:00,
2013-07-24 19:09:00,88.9,77.0,29.88,West,268,1.0,5.0,68,0.00,,,0.00,meteohub,2013-07-25 00:09:00,
2013-07-24 19:14:00,88.3,76.8,29.88,West,268,0.0,5.0,69,0.00,,,0.00,meteohub,2013-07-25 00:14:00,
2013-07-24 19:19:00,87.8,76.8,29.89,West,268,1.0,3.0,70,0.00,,,0.00,meteohub,2013-07-25 00:19:00,
2013-07-24 19:24:00,87.4,77.4,29.89,North,355,2.0,3.0,72,0.00,,,0.00,meteohub,2013-07-25 00:24:00,
2013-07-24 19:29:00,87.3,77.2,29.90,NNW,341,2.0,3.0,72,0.00,,,0.00,meteohub,2013-07-25 00:29:00,
2013-07-24 19:34:00,86.9,77.2,29.90,WNW,283,2.0,3.0,73,0.00,,,0.00,meteohub,2013-07-25 00:34:00,
2013-07-24 19:39:00,86.7,77.0,29.91,West,276,2.0,3.0,73,0.00,,,0.00,meteohub,2013-07-25 00:39:00,
2013-07-24 19:44:00,86.5,77.2,29.90,West,276,1.0,4.0,74,0.00,,,0.00,meteohub,2013-07-25 00:44:00,
2013-07-24 19:49:00,86.4,77.5,29.90,West,276,1.0,4.0,75,0.00,,,0.00,meteohub,2013-07-25 00:49:00,
2013-07-24 19:54:00,86.2,77.7,29.90,West,276,1.0,4.0,76,0.00,,,0.00,meteohub,2013-07-25 00:54:00,
2013-07-24 19:59:00,86.0,77.5,29.90,West,276,1.0,3.0,76,0.00,,,0.00,meteohub,2013-07-25 00:59:00,
2013-07-24 20:04:00,85.8,77.7,29.90,West,276,0.0,3.0,77,0.00,,,0.00,meteohub,2013-07-25 01:04:00,
2013-07-24 20:09:00,85.5,77.0,29.91,West,276,0.0,2.0,76,0.00,,,0.00,meteohub,2013-07-25 01:09:00,
2013-07-24 20:14:00,85.3,77.7,29.91,West,276,0.0,2.0,78,0.00,,,0.00,meteohub,2013-07-25 01:14:00,
2013-07-24 20:19:00,84.9,77.7,29.91,West,276,0.0,1.0,79,0.00,,,0.00,meteohub,2013-07-25 01:19:00,
2013-07-24 20:25:00,84.6,77.4,29.91,West,276,0.0,0.0,79,0.00,,,0.00,meteohub,2013-07-25 01:25:00,
2013-07-24 20:30:00,84.4,77.9,29.91,West,276,0.0,0.0,81,0.00,,,0.00,meteohub,2013-07-25 01:30:00,
2013-07-24 20:35:00,84.0,77.9,29.91,West,276,0.0,0.0,82,0.00,,,0.00,meteohub,2013-07-25 01:35:00,
2013-07-24 20:40:00,83.7,77.9,29.91,West,276,1.0,0.0,83,0.00,,,0.00,meteohub,2013-07-25 01:40:00,
2013-07-24 20:45:00,83.8,77.7,29.92,WNW,290,8.0,8.0,82,0.00,,,0.00,meteohub,2013-07-25 01:45:00,
2013-07-24 20:50:00,83.7,75.2,29.92,NW,311,4.0,4.0,76,0.00,,,0.00,meteohub,2013-07-25 01:50:00,
2013-07-24 20:55:00,82.8,74.5,29.92,WNW,292,5.0,12.0,76,0.00,,,0.00,meteohub,2013-07-25 01:55:00,
2013-07-24 21:00:00,82.0,74.5,29.92,WNW,300,2.0,12.0,78,0.00,,,0.00,meteohub,2013-07-25 02:00:00,
2013-07-24 21:05:00,81.3,74.1,29.92,West,261,6.0,12.0,79,0.00,,,0.00,meteohub,2013-07-25 02:05:00,
2013-07-24 21:10:00,80.8,74.8,29.93,WNW,283,2.0,10.0,82,0.00,,,0.00,meteohub,2013-07-25 02:10:00,
2013-07-24 21:15:00,80.1,74.8,29.93,NNE,14,0.0,9.0,84,0.00,,,0.00,meteohub,2013-07-25 02:15:00,
2013-07-24 21:20:00,79.5,74.7,29.93,North,9,0.0,6.0,85,0.00,,,0.00,meteohub,2013-07-25 02:20:00,
2013-07-24 21:25:00,79.2,74.7,29.93,North,9,0.0,6.0,86,0.00,,,0.00,meteohub,2013-07-25 02:25:00,
2013-07-24 21:30:00,78.6,74.8,29.93,North,9,0.0,5.0,88,0.00,,,0.00,meteohub,2013-07-25 02:30:00,
2013-07-24 21:35:00,78.4,74.8,29.93,North,5,1.0,1.0,89,0.00,,,0.00,meteohub,2013-07-25 02:35:00,
2013-07-24 21:40:00,78.1,74.8,29.93,North,5,0.0,2.0,90,0.00,,,0.00,meteohub,2013-07-25 02:40:00,
2013-07-24 21:45:00,78.1,74.8,29.93,North,5,0.0,2.0,90,0.00,,,0.00,meteohub,2013-07-25 02:45:00,
2013-07-24 21:50:00,77.7,74.8,29.92,North,5,0.0,2.0,91,0.00,,,0.00,meteohub,2013-07-25 02:50:00,
2013-07-24 21:55:00,77.5,75.0,29.92,North,5,0.0,2.0,92,0.00,,,0.00,meteohub,2013-07-25 02:55:00,
2013-07-24 22:00:00,77.5,75.0,29.92,North,5,0.0,2.0,92,0.00,,,0.00,meteohub,2013-07-25 03:00:00,
2013-07-24 22:05:00,77.4,74.8,29.92,North,5,0.0,1.0,92,0.00,,,0.00,meteohub,2013-07-25 03:05:00,
2013-07-24 22:11:00,77.2,75.0,29.92,North,5,0.0,1.0,93,0.00,,,0.00,meteohub,2013-07-25 03:11:00,
2013-07-24 22:16:00,76.8,75.0,29.92,North,0,1.0,1.0,94,0.00,,,0.00,meteohub,2013-07-25 03:16:00,
2013-07-24 22:21:00,76.8,75.2,29.92,North,0,0.0,2.0,95,0.00,,,0.00,meteohub,2013-07-25 03:21:00,
2013-07-24 22:26:00,76.6,75.0,29.92,North,0,0.0,2.0,95,0.00,,,0.00,meteohub,2013-07-25 03:26:00,
2013-07-24 22:31:00,76.6,75.0,29.92,North,355,0.0,2.0,95,0.00,,,0.00,meteohub,2013-07-25 03:31:00,
2013-07-24 22:37:00,76.5,75.2,29.92,North,355,0.0,2.0,96,0.00,,,0.00,meteohub,2013-07-25 03:37:00,
2013-07-24 22:42:00,76.5,75.2,29.92,North,355,0.0,2.0,96,0.00,,,0.00,meteohub,2013-07-25 03:42:00,
2013-07-24 22:47:00,76.5,75.2,29.92,North,355,0.0,2.0,96,0.00,,,0.00,meteohub,2013-07-25 03:47:00,
2013-07-24 22:52:00,76.3,75.0,29.92,North,355,0.0,1.0,96,0.00,,,0.00,meteohub,2013-07-25 03:52:00,
2013-07-24 22:57:00,76.3,75.0,29.93,North,355,0.0,1.0,96,0.00,,,0.00,meteohub,2013-07-25 03:57:00,
2013-07-24 23:01:00,76.1,74.8,29.93,North,355,0.0,1.0,96,0.00,,,0.00,meteohub,2013-07-25 04:01:00,
2013-07-24 23:02:00,76.1,74.8,29.92,North,355,0.0,1.0,96,0.00,,,0.00,meteohub,2013-07-25 04:02:00,
2013-07-24 23:07:00,76.1,74.8,29.92,North,355,0.0,1.0,96,0.00,,,0.00,meteohub,2013-07-25 04:07:00,
2013-07-24 23:12:00,76.3,75.0,29.92,North,355,0.0,1.0,96,0.00,,,0.00,meteohub,2013-07-25 04:12:00,
2013-07-24 23:17:00,76.1,74.8,29.92,North,355,0.0,1.0,96,0.00,,,0.00,meteohub,2013-07-25 04:17:00,
2013-07-24 23:22:00,75.9,74.7,29.92,North,355,0.0,1.0,96,0.00,,,0.00,meteohub,2013-07-25 04:22:00,
2013-07-24 23:27:00,75.9,75.0,29.93,North,355,0.0,1.0,97,0.00,,,0.00,meteohub,2013-07-25 04:27:00,
2013-07-24 23:32:00,75.9,75.0,29.93,North,355,0.0,1.0,97,0.00,,,0.00,meteohub,2013-07-25 04:32:00,
2013-07-24 23:37:00,75.9,75.0,29.93,North,355,0.0,1.0,97,0.00,,,0.00,meteohub,2013-07-25 04:37:00,
2013-07-24 23:42:00,75.9,75.0,29.93,North,355,0.0,1.0,97,0.00,,,0.00,meteohub,2013-07-25 04:42:00,
2013-07-24 23:47:00,75.7,74.5,29.93,North,355,0.0,2.0,96,0.00,,,0.00,meteohub,2013-07-25 04:47:00,
2013-07-24 23:52:00,75.7,74.5,29.93,North,355,0.0,2.0,96,0.00,,,0.00,meteohub,2013-07-25 04:52:00,
2013-07-24 23:57:00,75.7,74.5,29.93,North,355,0.0,2.0,96,0.00,,,0.00,meteohub,2013-07-25 04:57:00,